Погода в Мадабе

Иордания     31°43′14″N   35°47′41″E
темп.,
°C
ветер,
м/с
пор.,
м/с
влажн.,
%
обл.,
%
осадки,
мм/ч
давл.,
гПа
погр.,
м
13 июня, вс
вс1300:00+26в22235 0.0 101215
03:00+24св11271 0.0 101111
06:00+24в11314 0.0 101111
09:00+29ю12220 0.0 1011579
12:00+33зюз25180 0.0 10101700
15:00+34сз64170 0.0 10091024
18:00+30сз77250 0.0 1009735
21:00+25сз35330 0.0 1010230
14 июня, пн
пн1400:00+22зсз24340 0.0 1011136
03:00+20зсз12390 0.0 101143
06:00+19сз11480 0.0 101133
09:00+22зсз33450 0.0 1011465
12:00+25зсз55420 0.0 1011826
15:00+27зсз77360 0.0 10101299
18:00+25сз98340 0.0 10101132
21:00+20зсз58540 0.0 1012722
15 июня, вт
вт1500:00+18зсз35720 0.0 1013310
03:00+17з23810 0.0 1012114
06:00+16з22872 0.0 101390
09:00+19зсз45640 0.0 1013578
12:00+24зсз43450 0.0 1012873
15:00+27зсз43320 0.0 10101187
18:00+26сз65340 0.0 10101236
21:00+22сз45480 0.0 1011459
16 июня, ср
ср1600:00+19сз23640 0.0 101296
03:00+17сз22690 0.0 101239
06:00+17зсз23780 0.0 101362
09:00+20зсз44640 0.0 1014571
12:00+24зсз55450 0.0 1013847
15:00+27зсз67360 0.0 10121340
18:00+25сз99450 0.0 10131232
21:00+20зсз46590 0.0 1015591
17 июня, чт
чт1700:00+18зсз35740 0.0 1015476
03:00+16зсз22870 0.0 101694
06:00+15з12900 0.0 101665
09:00+19зсз33560 0.0 1016484
12:00+23зсз44370 0.0 1015720
15:00+27зсз55310 0.0 1014947
18:00+26сз77340 0.0 10141013
21:00+21сз34510 0.0 1015280